Flag for Germany Weather past 2 weeks in Iserlohn, North Rhine-Westphalia, Germany

Now
23 °F

Passing clouds.


Feels Like: 13 °F
Forecast: 18 / 35 °F
Wind: 9 mph from Northeast

Location: Dortmund / Wickede

Current Time: Dec 28, 2014 at 9:51:20 AM

Latest Report: Dec 28, 2014 at 9:20 AM


Visibility: N/A

Pressure: 30.18 "Hg

Humidity: 74%

Dew point: 16 °F

Location of IserlohnLocation

Historic Weather in Iserlohn — Graph

°F

Iserlohn temperature yesterday

Maximum temperature yesterday: 36 °F (at 5:20 AM)
Minimum temperature yesterday: 28 °F (at 10:20 PM)
Average temperature yesterday: 32 °F

Past Weeks' High & Low Weather Summary

 TemperatureHumidityPressure
High54 °F (Dec 18, 5:20 PM)93% (Dec 13, 10:20 PM)30.39 "Hg (Dec 13, 10:20 PM)
Low21 °F (Dec 28, 8:50 AM)60% (Dec 27, 8:20 PM)29.47 "Hg (Dec 27, 12:20 PM)
Average42 °F83%29.95 "Hg
* Reported Dec 13 8:20 AM — Dec 28 8:50 AM, Iserlohn, Weather by CustomWeather, © 2014

Note: Actual official high and low records may vary slightly from our data, if they occured in-between our weather recording intervals... More about our weather records

Advertising

Iserlohn weather history for previous 24 hours

 ConditionsComfort  
Time TempWeatherWind HumidityBarometerVisibility
8:50 AM
Dec 28
21 °FPassing clouds.12 mph80%30.15 "HgN/A
8:20 AM23 °FClear.8 mph74%30.12 "Hg10 mi
7:50 AM23 °FClear.10 mph74%30.09 "Hg10 mi
7:20 AM23 °FPassing clouds.10 mph74%30.07 "HgN/A
6:50 AM23 °FPassing clouds.12 mph74%30.04 "HgN/A
6:20 AM23 °FClear.12 mph74%30.04 "Hg10 mi
5:50 AM23 °FClear.12 mph74%30.01 "Hg10 mi
5:20 AM23 °FClear.12 mph74%29.98 "Hg10 mi
10:50 PM
Dec 27
28 °FClear.18 mph69%29.71 "Hg10 mi
10:20 PM28 °FPassing clouds.16 mph69%29.68 "HgN/A
9:50 PM30 °FPassing clouds.15 mph64%29.68 "HgN/A
9:20 PM30 °FClear.13 mph69%29.65 "Hg10 mi
8:50 PM30 °FPassing clouds.14 mph69%29.62 "HgN/A
8:20 PM32 °FPassing clouds.18 mph60%29.62 "HgN/A
7:50 PM30 °FClear.18 mph69%29.59 "Hg10 mi
7:20 PM30 °FClear.18 mph69%29.56 "Hg10 mi
6:50 PM32 °FPassing clouds.17 mph64%29.56 "HgN/A
6:20 PM32 °FPassing clouds.20 mph64%29.53 "HgN/A
5:50 PM32 °FPassing clouds.17 mph75%29.53 "HgN/A
5:20 PM32 °FPassing clouds.25 mph80%29.50 "HgN/A
4:50 PM32 °FPassing clouds.23 mph80%29.50 "HgN/A
4:20 PM32 °FScattered clouds.21 mph87%29.50 "HgN/A
3:50 PM32 °FBroken clouds.20 mph87%29.47 "HgN/A
3:20 PM32 °FLight snow. Partly sunny.20 mph87%29.47 "Hg4 mi
2:50 PM34 °FLight snow. Partly sunny.18 mph87%29.47 "Hg3 mi
2:20 PM32 °FLight snow. Partly sunny.16 mph93%29.47 "Hg3 mi
1:50 PM32 °FLight snow. Partly sunny.15 mph93%29.47 "Hg1 mi
1:20 PM32 °FSnow. Partly sunny.15 mph93%29.47 "Hg1 mi
12:50 PM32 °FLight snow. Partly sunny.14 mph93%29.47 "Hg2 mi
12:20 PM32 °FLight snow. Partly sunny.15 mph93%29.47 "Hg2 mi
11:50 AM32 °FLight snow. Partly sunny.14 mph93%29.50 "Hg1 mi
11:20 AM32 °FLight snow. Partly sunny.14 mph93%29.50 "Hg1 mi
10:50 AM32 °FSnow. Partly sunny.15 mph93%29.50 "Hg1 mi
10:20 AM32 °FSnow. Partly sunny.15 mph93%29.50 "Hg1 mi
9:50 AM32 °FSnow. Partly sunny.14 mph93%29.53 "Hg1 mi
9:20 AM34 °FLight snow. Partly sunny.14 mph87%29.53 "Hg1 mi
Weather by CustomWeather, © 2014

See weather overviewHow to use our weather pages